Location: Kopernik Observatory
(42.0014°N, 76.0372°W)
Time: 05:04:21
(UTC-05:00)

Daily predictions for brighter satellites

Satellite Brightness Start Highest point End
(mag) Time Altitude Azimuth Time Altitude Azimuth Time Altitude Azimuth
SL-16 R/B 4.5 03:40:52 19° ENE 03:40:52 19° ENE 03:43:59 10° E
Cosmos 2297 Rocket 4.2 03:51:30 24° ENE 03:51:30 24° ENE 03:54:15 10° NE
Cosmos 2227 Rocket 4.1 04:05:02 24° NE 04:05:02 24° NE 04:07:13 10° NNE
Cosmos 2333 Rocket 4.3 04:39:22 15° S 04:39:22 15° S 04:40:20 10° S
SeaSat 1 4.4 04:41:05 10° NNE 04:42:30 19° NNE 04:42:30 19° NNE
Cosmos 1864 Rocket 4.4 04:41:42 10° S 04:47:49 85° E 04:54:01 10° N
Cosmos 1725 Rocket 3.9 04:41:34 10° S 04:47:49 86° E 04:54:09 10° N
USA 229 DEB 3.7 04:50:54 57° NNW 04:52:33 88° NE 04:59:49 10° SE
USA 229 3.7 04:50:57 57° NNW 04:52:39 87° NE 04:59:55 10° SE
Cosmos 304 Rocket 4.0 05:04:56 55° NNE 05:05:45 66° ENE 05:10:30 10° SSE
OAO 2 Rocket 4.1 05:09:35 37° S 05:09:44 37° S 05:14:15 10° ESE
ISS -1.8 05:16:07 36° ESE 05:16:07 36° ESE 05:18:13 10° ESE
Cosmos 540 Rocket 4.3 05:17:13 35° SSW 05:17:13 35° SSW 05:20:27 10° S
Cosmos 783 Rocket 4.4 05:16:31 65° WSW 05:16:33 65° WSW 05:21:43 10° S
Cosmos 2058 4.3 05:16:09 10° N 05:20:00 37° ENE 05:23:51 10° SE
Cosmos 2237 Rocket 3.6 05:22:48 23° SSW 05:22:48 23° SSW 05:25:16 10° SSW
Aureole 2 Rocket 3.9 05:26:05 33° SSW 05:26:05 33° SSW 05:28:37 10° S
SL-16 R/B 2.1 05:22:48 44° NW 05:24:35 70° WSW 05:30:12 10° SSE
SL-8 R/B 4.3 05:25:58 41° NNW 05:26:54 46° NNE 05:31:32 10° E
Cosmos 1743 Rocket 4.0 05:27:58 45° SW 05:27:58 45° SW 05:31:16 10° S
Cosmos 2297 Rocket 2.6 05:33:23 39° NW 05:33:23 39° NW 05:38:31 10° N
Cosmos 1842 Rocket 3.4 05:32:52 10° SSW 05:37:08 62° W 05:41:29 10° N
Cosmos 2233 Rocket 3.9 05:30:59 10° SSW 05:37:10 64° W 05:43:26 10° N
COSMO-SKYMED 1 2.5 05:34:04 10° S 05:38:19 58° W 05:39:28 43° NW
USA 234 3.8 05:32:02 10° ESE 05:38:21 53° NNE 05:42:59 19° NW
Cosmos 2151 2.8 05:39:27 16° N 05:42:51 85° W 05:47:05 10° S
Meteor 1-11 4.3 05:37:12 10° N 05:43:04 85° E 05:48:52 10° S
ERBS 2.6 05:44:40 46° NNW 05:45:26 63° NE 05:48:49 10° SE
Cosmos 1538 Rocket 3.9 05:41:35 17° NNW 05:45:48 79° WSW 05:51:09 10° SSE
Cosmos 2227 Rocket 3.3 05:46:54 24° NW 05:46:54 24° NW 05:50:41 10° N
Meteor 1-4 Rocket 3.3 05:48:27 35° NNW 05:48:27 35° NNW 05:51:02 10° N
NOSS 3-1 (C) 4.1 05:41:10 17° NW 05:47:26 87° NE 05:55:49 10° SE
Cosmos 1340 Rocket 2.8 05:44:22 12° N 05:48:04 77° E 05:52:00 10° SSE
Meteor 1-16 Rocket 4.0 05:44:06 10° SSW 05:49:31 75° W 05:54:52 10° N
Cosmos 1271 Rocket 2.5 05:47:29 10° S 05:51:20 85° WNW 05:55:08 10° N
Meteor 1-28 Rocket 3.2 05:50:09 10° S 05:53:51 58° W 05:55:51 25° NNW
Cosmos 1500 Rocket 3.9 05:52:33 30° NW 05:54:02 40° W 05:58:13 10° SSW
Ariane Rocket 2.9 05:51:52 10° N 05:56:59 76° WNW 06:02:04 10° SSW
SL-14 R/B 3.4 05:55:40 18° NNW 05:58:27 53° W 06:02:24 10° S
Cosmos 292 Rocket 4.4 05:56:42 10° NNW 06:01:25 55° ENE 06:06:07 10° SE
Cosmos 1680 Rocket 4.3 05:56:59 10° N 06:02:10 51° ENE 06:07:21 10° SE
Cosmos 1626 2.8 06:03:28 10° N 06:07:10 56° E 06:10:50 10° SSE
Cosmos 1943 4.2 06:01:59 10° NNW 06:07:29 47° ENE 06:12:57 10° SE
Sich 1 3.8 06:07:22 10° N 06:11:40 55° E 06:15:54 10° SSE
SMAP 4.0 06:07:34 10° NNE 06:12:09 53° E 06:16:41 10° S
Meteor 2-1 Rocket 4.1 06:07:57 10° SSW 06:13:33 74° WNW 06:19:17 10° N
Cosmos 1633 Rocket 3.9 06:09:35 10° N 06:13:51 51° E 06:18:04 10° SSE
CZ-2C R/B 2.7 06:10:49 10° NNE 06:15:25 66° ESE 06:19:56 10° S
ATLAS CENTAUR R/B 4.4 06:14:29 10° NNW 06:17:42 18° NNE 06:23:32 10° ENE
Cosmos 389 Rocket 3.9 06:16:07 10° SSE 06:19:36 44° E 06:23:08 10° NNE
CZ-4 R/B 1.5 06:16:33 10° NNE 06:20:37 84° ESE 06:24:43 10° SSW
SeaSat 1 4.4 06:21:18 10° NNW 06:22:19 11° NW 06:22:19 11° NW
PAYLOAD A 3.9 06:18:25 10° N 06:23:27 70° WNW 06:28:17 10° SSW
CSL-04 Debris 4.2 06:18:04 10° N 06:23:32 64° WNW 06:28:54 10° SSW
Tiangong 2 3.8 06:22:36 10° SSW 06:24:52 19° SSE 06:27:09 10° ESE
Cosmos 1464 Rocket 4.1 06:21:24 10° SSW 06:27:36 57° W 06:33:49 10° N
Cosmos 1603 3.8 06:23:00 10° NNW 06:28:31 57° WSW 06:34:01 10° S
Cosmos 968 Rocket 4.4 06:24:33 10° WSW 06:29:02 28° WNW 06:33:32 10° N
YAOGAN 1 2.8 06:27:57 10° NNE 06:32:18 75° ESE 06:36:37 10° S
GPS 2-05 Rocket1 4.5 06:31:33 10° WSW 06:34:21 26° S 06:37:15 10° ESE
Cosmos 2263 Rocket 3.2 06:29:09 10° S 06:34:37 53° ESE 06:40:10 10° NNE
Cosmos 2112 Rocket 4.1 06:31:29 10° NNW 06:36:50 88° ENE 06:42:11 10° SSE
Cosmos 1908 3.2 06:34:12 10° S 06:38:01 85° E 06:41:52 10° N
Coronas F rocket 0.9 06:37:24 10° N 06:39:50 87° WSW 06:42:13 10° S
MSX 4.1 06:39:07 10° NNE 06:44:54 78° ESE 06:50:40 10° S
Cosmos 1666 Rocket 3.7 06:40:33 10° NNW 06:44:56 58° W 06:49:20 10° S
CZ-4 R/B 4.4 06:45:33 10° NNE 06:49:42 87° WNW 06:53:49 10° SSW
Cosmos 2221 3.4 06:46:04 10° SW 06:49:44 27° WNW 06:53:25 10° NNW
ISS -1.2 06:49:11 10° W 06:51:07 15° SW 06:53:03 10° SSW
CSL-04 Rocket 4.3 06:47:56 10° N 06:52:31 31° WNW 06:57:04 10° SW
Cosmos 1933 Rocket 4.0 06:52:08 10° N 06:56:36 69° E 07:01:00 10° SSE
Cosmos 2058 4.5 06:54:02 10° NW 06:56:36 16° W 06:59:12 10° SW
NOSS 3-1 (A) 4.4 06:49:47 10° NW 06:57:11 51° WSW 07:05:11 10° S
APEX 3.7 06:53:31 10° SSW 06:57:30 60° ESE 07:00:43 10° NNE
Genesis I 4.4 06:54:20 10° WNW 06:57:38 26° WSW 07:00:54 10° S
Cosmos 1184 Rocket 3.7 06:56:26 10° NNW 06:59:22 30° W 07:02:19 10° SSW
SPOT 3 Rocket 3.6 06:55:22 10° N 07:00:33 67° WNW 07:05:43 10° SSW
